Location: Unspecified
(0.0000°N, 0.0000°E)
Time: 07:54:41
(UTC+00:00)

Transit 2A Rocket - Visible Passes

Search period start: 26 October 2020 00:00
Search period end: 05 November 2020 00:00
Orbit: 586 x 917 km, 66.7° (Epoch: 25 October)

Date Brightness Start Highest point End Pass type
(mag) Time Alt. Az. Time Alt. Az. Time Alt. Az.
31 Oct 4.4 19:17:13 10° NNW 19:21:39 84° WSW 19:23:29 34° SSE visible
01 Nov 4.9 18:35:01 10° N 18:39:08 38° ENE 18:43:07 10° SE visible
02 Nov 7.2 19:35:45 10° WNW 19:38:50 19° WSW 19:41:52 10° SSW visible
03 Nov 5.7 18:52:09 10° NW 18:56:22 45° WSW 19:00:26 10° S visible
04 Nov 4.4 18:09:29 10° NNW 18:13:53 70° ENE 18:18:06 10° SSE visible
